contact:dominique.lefevre@mio.osupytheas.fr, maurice.libes@osupytheas.fr, didier.mallarino@osupytheas.fr
Project:EMSO http://www.emso-fr.org/EMSO-France
Depth: 2436.0 m
Title:EMSO Ligure Ouest : Data MII capteur AQUADOPP
Date,Latitude,Longitude,X_East,Y_North,Z_Up,Amplitude_X,Amplitude_Y,Amplitude_Z,Batterie,SoundSpeed,Heading,Pitch,Roll,Pressure,TIS,Speed,Direction
, degrees North, degrees East, m.s-1, m.s-1,m.s-1, 1, 1, 1, Volt, m.s-1, degree, degree, degree, dbar, degree_C, m.s-1, degree
2019-12-06T00:04:03,42.805,6.029,-0.006,0.007,-0.012,100.0,104.0,97.0,13.4,1505.3,328.5,-0.7,1.8,2470.286,13.31,0.009,319.4
2019-12-06T00:07:03,42.805,6.029,-0.021,0.015,-0.06,100.0,104.0,98.0,13.3,1505.3,324.7,-0.7,1.8,2470.276,13.31,0.025,305.5
2019-12-06T00:10:03,42.805,6.029,-0.052,0.0,-0.056,99.0,103.0,98.0,13.4,1505.3,325.0,-0.8,1.9,2470.236,13.32,0.052,270.0
2019-12-06T00:13:03,42.805,6.029,-0.037,0.015,-0.019,99.0,103.0,99.0,13.3,1505.3,327.4,-0.7,1.8,2470.237,13.32,0.039,292.1
2019-12-06T00:16:03,42.805,6.029,-0.015,0.009,-0.026,99.0,104.0,98.0,13.4,1505.3,326.2,-0.7,1.8,2470.3,13.33,0.017,301.0
2019-12-06T00:19:03,42.805,6.029,-0.005,0.008,-0.078,99.0,107.0,101.0,13.4,1505.3,327.2,-0.7,1.8,2470.275,13.33,0.009,328.0
2019-12-06T00:22:03,42.805,6.029,-0.009,0.014,-0.021,100.0,105.0,98.0,13.4,1505.3,326.8,-0.7,1.8,2470.254,13.33,0.016,327.3
2019-12-06T00:25:03,42.805,6.029,-0.003,0.002,-0.058,100.0,104.0,98.0,13.4,1505.3,327.3,-0.7,1.8,2470.219,13.33,0.003,303.7
2019-12-06T00:28:03,42.805,6.029,0.01,0.01,0.005,99.0,104.0,97.0,13.4,1505.3,325.6,-0.7,1.8,2470.23,13.33,0.014,45.0
2019-12-06T00:31:03,42.805,6.029,0.007,0.0,-0.031,99.0,104.0,97.0,13.3,1505.3,328.2,-0.7,1.8,2470.284,13.33,0.007,90.0
2019-12-06T00:34:03,42.805,6.029,0.023,0.018,0.035,98.0,104.0,98.0,13.4,1505.3,325.2,-0.7,1.8,2470.251,13.33,0.029,52.0
2019-12-06T00:37:03,42.805,6.029,-0.004,-0.004,-0.007,99.0,104.0,99.0,13.3,1505.3,324.8,-0.7,1.8,2470.269,13.33,0.005,225.0
2019-12-06T00:40:03,42.805,6.029,0.004,0.014,-0.008,100.0,103.0,98.0,13.4,1505.3,323.9,-0.7,1.8,2470.266,13.33,0.014,15.9
2019-12-06T00:43:03,42.805,6.029,0.009,0.003,-0.017,102.0,102.0,99.0,13.3,1505.3,324.7,-0.7,1.8,2470.253,13.33,0.009,71.6
2019-12-06T00:46:03,42.805,6.029,-0.003,0.026,0.006,98.0,105.0,98.0,13.3,1505.3,323.9,-0.7,1.9,2470.288,13.33,0.026,353.4
2019-12-06T00:49:03,42.805,6.029,0.013,-0.001,0.012,100.0,102.0,98.0,13.4,1505.3,325.2,-0.7,1.8,2470.26,13.33,0.013,94.4
2019-12-06T00:52:03,42.805,6.029,0.017,0.016,-0.01,99.0,104.0,98.0,13.4,1505.3,326.4,-0.8,1.8,2470.291,13.33,0.023,46.7
2019-12-06T00:55:03,42.805,6.029,0.003,0.015,-0.001,100.0,104.0,98.0,13.4,1505.3,323.9,-0.7,1.8,2470.235,13.33,0.015,11.3
2019-12-06T00:58:03,42.805,6.029,0.0,0.022,0.001,100.0,104.0,98.0,13.4,1505.3,326.6,-0.7,1.8,2470.274,13.33,0.022,0.0
2019-12-06T01:04:03,42.805,6.029,-0.006,0.013,0.0,101.0,105.0,100.0,13.4,1505.3,327.9,-0.7,1.8,2470.263,13.31,0.014,335.2
2019-12-06T01:07:02,42.805,6.029,0.04,0.017,0.041,103.0,105.0,99.0,13.3,1505.3,327.1,-0.7,1.8,2470.256,13.32,0.043,67.0
2019-12-06T01:10:03,42.805,6.029,-0.005,0.008,-0.001,99.0,104.0,99.0,13.4,1505.3,326.7,-0.7,1.9,2470.295,13.32,0.009,328.0
2019-12-06T01:13:03,42.805,6.029,0.004,0.013,-0.03,100.0,103.0,98.0,13.4,1505.3,328.4,-0.7,1.8,2470.269,13.33,0.013,17.1
2019-12-06T01:16:03,42.805,6.029,-0.014,0.0,0.006,102.0,105.0,96.0,13.4,1505.3,328.1,-0.7,1.8,2470.299,13.33,0.014,270.0
2019-12-06T01:19:03,42.805,6.029,-0.009,0.015,0.001,101.0,104.0,98.0,13.4,1505.3,324.4,-0.7,1.8,2470.294,13.33,0.017,329.0
2019-12-06T01:22:03,42.805,6.029,-0.026,0.006,-0.032,98.0,104.0,99.0,13.4,1505.3,324.0,-0.7,1.9,2470.266,13.33,0.026,283.0
2019-12-06T01:25:03,42.805,6.029,-0.011,0.03,-0.021,100.0,104.0,98.0,13.4,1505.3,325.2,-0.7,1.8,2470.285,13.33,0.031,339.9
2019-12-06T01:28:03,42.805,6.029,-0.011,0.001,-0.031,100.0,105.0,98.0,13.4,1505.3,325.5,-0.7,1.8,2470.322,13.33,0.011,275.2
2019-12-06T01:31:03,42.805,6.029,0.006,0.0,-0.015,101.0,105.0,99.0,13.4,1505.3,325.2,-0.7,1.9,2470.238,13.33,0.006,90.0
2019-12-06T01:34:03,42.805,6.029,-0.018,0.022,-0.01,100.0,105.0,99.0,13.4,1505.3,327.6,-0.7,1.8,2470.256,13.33,0.028,320.7
2019-12-06T01:37:03,42.805,6.029,-0.003,0.008,0.026,100.0,103.0,99.0,13.4,1505.3,326.4,-0.7,1.8,2470.289,13.33,0.008,339.4
2019-12-06T01:40:03,42.805,6.029,0.006,-0.001,-0.017,101.0,105.0,98.0,13.3,1505.3,328.5,-0.7,1.9,2470.239,13.33,0.006,99.5
2019-12-06T01:43:03,42.805,6.029,-0.009,0.022,-0.02,100.0,104.0,98.0,13.3,1505.3,325.6,-0.7,1.9,2470.303,13.33,0.023,337.8
2019-12-06T01:46:03,42.805,6.029,0.001,0.005,-0.019,99.0,106.0,98.0,13.4,1505.3,327.8,-0.8,1.8,2470.253,13.33,0.005,11.3
2019-12-06T01:49:03,42.805,6.029,0.019,0.023,0.001,99.0,104.0,99.0,13.4,1505.3,325.0,-0.7,1.8,2470.255,13.33,0.029,39.6
2019-12-06T01:52:03,42.805,6.029,0.003,0.009,-0.011,99.0,105.0,99.0,13.4,1505.3,326.7,-0.7,1.9,2470.264,13.33,0.009,18.4
2019-12-06T01:55:03,42.805,6.029,0.042,0.008,0.029,100.0,103.0,98.0,13.3,1505.3,324.6,-0.7,1.8,2470.259,13.33,0.042,79.2
2019-12-06T01:58:03,42.805,6.029,-0.001,0.026,0.003,99.0,106.0,97.0,13.4,1505.3,323.8,-0.7,1.8,2470.321,13.33,0.026,357.8
2019-12-06T02:04:03,42.805,6.029,-0.001,0.028,0.013,99.0,103.0,97.0,13.4,1505.3,328.2,-0.7,1.8,2470.309,13.31,0.028,358.0
2019-12-06T02:07:03,42.805,6.029,-0.015,0.009,-0.038,100.0,104.0,100.0,13.3,1505.3,324.3,-0.7,1.8,2470.307,13.32,0.017,301.0
2019-12-06T02:10:03,42.805,6.029,0.035,0.022,0.04,100.0,105.0,97.0,13.3,1505.3,325.4,-0.7,1.8,2470.329,13.32,0.041,57.8
2019-12-06T02:13:03,42.805,6.029,0.008,-0.002,-0.036,97.0,105.0,99.0,13.4,1505.3,325.6,-0.7,1.8,2470.26,13.33,0.008,104.0
2019-12-06T02:16:03,42.805,6.029,0.024,0.005,-0.02,101.0,103.0,98.0,13.4,1505.3,327.1,-0.7,1.8,2470.213,13.33,0.024,78.2
2019-12-06T02:19:03,42.805,6.029,-0.015,0.021,0.011,100.0,105.0,99.0,13.4,1505.3,324.4,-0.7,1.8,2470.263,13.33,0.025,324.5
2019-12-06T02:22:03,42.805,6.029,-0.008,0.021,0.015,101.0,103.0,98.0,13.4,1505.3,326.8,-0.7,1.9,2470.283,13.33,0.022,339.1
2019-12-06T02:25:03,42.805,6.029,-0.007,0.015,-0.034,99.0,105.0,99.0,13.4,1505.3,327.1,-0.7,1.8,2470.319,13.33,0.016,335.0
2019-12-06T02:28:03,42.805,6.029,0.004,0.039,0.003,100.0,106.0,100.0,13.4,1505.3,325.4,-0.7,1.8,2470.251,13.33,0.039,5.9
2019-12-06T02:31:03,42.805,6.029,0.04,0.017,0.0,100.0,104.0,99.0,13.4,1505.3,328.2,-0.7,1.8,2470.234,13.33,0.043,67.0
2019-12-06T02:34:03,42.805,6.029,-0.006,0.025,-0.019,100.0,106.0,98.0,13.3,1505.3,325.1,-0.7,1.8,2470.303,13.33,0.025,346.5
2019-12-06T02:37:03,42.805,6.029,-0.014,0.025,0.0,100.0,105.0,98.0,13.4,1505.3,325.1,-0.7,1.9,2470.244,13.33,0.028,330.7
2019-12-06T02:40:03,42.805,6.029,-0.062,0.012,-0.05,99.0,104.0,98.0,13.4,1505.3,327.9,-0.7,1.8,2470.254,13.33,0.063,281.0
2019-12-06T02:43:03,42.805,6.029,-0.008,0.024,0.012,100.0,104.0,99.0,13.4,1505.3,324.7,-0.7,1.8,2470.279,13.33,0.025,341.6
2019-12-06T02:46:03,42.805,6.029,0.006,0.02,-0.027,100.0,105.0,98.0,13.4,1505.3,324.1,-0.7,1.9,2470.302,13.33,0.02,16.7
2019-12-06T02:49:03,42.805,6.029,-0.019,0.023,-0.005,99.0,104.0,99.0,13.4,1505.3,324.9,-0.7,1.8,2470.272,13.33,0.029,320.4
2019-12-06T02:52:03,42.805,6.029,0.0,0.026,0.023,100.0,105.0,98.0,13.4,1505.3,326.5,-0.7,1.8,2470.304,13.33,0.026,0.0
2019-12-06T02:55:03,42.805,6.029,-0.003,0.02,-0.009,100.0,105.0,99.0,13.4,1505.3,328.3,-0.7,1.8,2470.273,13.33,0.02,351.5
2019-12-06T02:58:03,42.805,6.029,0.002,0.019,0.017,100.0,103.0,99.0,13.4,1505.3,323.5,-0.7,1.8,2470.283,13.33,0.019,6.0
2019-12-06T03:04:03,42.805,6.029,0.001,0.017,0.001,100.0,107.0,97.0,13.4,1505.3,325.7,-0.7,1.8,2470.292,13.31,0.017,3.4
2019-12-06T03:07:03,42.805,6.029,-0.016,0.006,-0.022,100.0,104.0,98.0,13.4,1505.3,323.8,-0.7,1.8,2470.283,13.32,0.017,290.6
2019-12-06T03:10:03,42.805,6.029,-0.008,0.006,-0.023,100.0,106.0,98.0,13.4,1505.3,326.8,-0.7,1.8,2470.295,13.32,0.01,306.9
2019-12-06T03:13:03,42.805,6.029,0.0,0.027,0.001,99.0,103.0,98.0,13.3,1505.3,327.2,-0.7,1.8,2470.238,13.33,0.026,0.0
2019-12-06T03:16:03,42.805,6.029,-0.001,0.045,0.035,100.0,105.0,98.0,13.4,1505.3,327.0,-0.7,1.8,2470.307,13.33,0.045,358.7
2019-12-06T03:19:03,42.805,6.029,0.006,-0.003,0.005,103.0,104.0,98.0,13.4,1505.3,323.1,-0.7,1.9,2470.31,13.33,0.006,116.6
2019-12-06T03:22:03,42.805,6.029,-0.007,0.03,0.019,101.0,103.0,97.0,13.4,1505.3,324.9,-0.7,1.9,2470.228,13.33,0.03,346.9
2019-12-06T03:25:03,42.805,6.029,0.007,0.02,0.002,98.0,104.0,99.0,13.4,1505.3,323.7,-0.7,1.8,2470.33,13.33,0.021,19.3
2019-12-06T03:28:03,42.805,6.029,0.005,0.029,0.007,97.0,106.0,99.0,13.3,1505.3,328.4,-0.7,1.8,2470.329,13.33,0.029,9.8
2019-12-06T03:31:03,42.805,6.029,-0.019,0.024,-0.019,101.0,104.0,99.0,13.4,1505.3,326.8,-0.7,1.8,2470.283,13.33,0.03,321.6
2019-12-06T03:34:03,42.805,6.029,-0.033,0.038,-0.015,102.0,105.0,98.0,13.4,1505.3,324.8,-0.7,1.9,2470.286,13.33,0.05,319.0
2019-12-06T03:37:03,42.805,6.029,0.0,0.011,-0.013,100.0,103.0,99.0,13.4,1505.3,326.8,-0.7,1.9,2470.242,13.33,0.011,0.0
2019-12-06T03:40:03,42.805,6.029,-0.048,0.022,-0.02,101.0,104.0,99.0,13.4,1505.3,326.0,-0.7,1.8,2470.256,13.33,0.052,294.6
2019-12-06T03:43:03,42.805,6.029,-0.005,0.005,-0.024,99.0,104.0,98.0,13.4,1505.3,324.9,-0.7,1.8,2470.25,13.33,0.007,315.0
2019-12-06T03:46:03,42.805,6.029,-0.009,-0.004,-0.033,102.0,103.0,100.0,13.4,1505.3,325.7,-0.7,1.8,2470.289,13.33,0.009,246.0
2019-12-06T03:49:03,42.805,6.029,-0.019,0.018,-0.019,99.0,105.0,98.0,13.3,1505.3,327.3,-0.7,1.8,2470.281,13.33,0.026,313.5
2019-12-06T03:52:03,42.805,6.029,0.002,0.013,-0.015,100.0,105.0,98.0,13.4,1505.3,327.4,-0.7,1.8,2470.248,13.33,0.013,8.7
2019-12-06T03:55:03,42.805,6.029,-0.005,0.025,-0.011,102.0,105.0,98.0,13.4,1505.3,328.4,-0.7,1.8,2470.301,13.33,0.025,348.7
2019-12-06T03:58:03,42.805,6.029,0.008,0.032,0.031,99.0,105.0,98.0,13.4,1505.3,323.2,-0.7,1.8,2470.248,13.33,0.032,14.0
2019-12-06T04:04:03,42.805,6.029,-0.014,0.02,-0.044,100.0,104.0,98.0,13.4,1505.3,326.3,-0.7,1.9,2470.311,13.31,0.024,325.0
2019-12-06T04:07:03,42.805,6.029,-0.026,0.024,-0.059,99.0,104.0,98.0,13.3,1505.3,325.6,-0.7,1.8,2470.282,13.32,0.035,312.7
2019-12-06T04:10:03,42.805,6.029,-0.028,0.019,-0.001,99.0,104.0,100.0,13.4,1505.3,327.1,-0.7,1.8,2470.302,13.32,0.033,304.2
2019-12-06T04:13:03,42.805,6.029,-0.023,0.01,-0.026,99.0,106.0,98.0,13.4,1505.3,325.0,-0.7,1.9,2470.297,13.33,0.025,293.5
2019-12-06T04:16:03,42.805,6.029,-0.021,0.019,-0.042,99.0,106.0,98.0,13.4,1505.3,327.2,-0.7,1.8,2470.299,13.33,0.028,312.1
2019-12-06T04:19:03,42.805,6.029,-0.011,0.022,0.023,101.0,105.0,99.0,13.3,1505.3,325.3,-0.7,1.8,2470.263,13.33,0.024,333.4
2019-12-06T04:22:03,42.805,6.029,-0.023,0.018,-0.003,100.0,105.0,99.0,13.3,1505.3,324.4,-0.7,1.8,2470.302,13.33,0.029,308.0
2019-12-06T04:25:03,42.805,6.029,-0.017,0.022,-0.001,101.0,104.0,98.0,13.4,1505.3,327.8,-0.7,1.8,2470.296,13.33,0.027,322.3
2019-12-06T04:28:03,42.805,6.029,-0.005,0.023,-0.014,99.0,107.0,98.0,13.4,1505.3,327.1,-0.7,1.9,2470.259,13.33,0.023,347.7
2019-12-06T04:31:03,42.805,6.029,-0.017,0.018,-0.034,101.0,106.0,98.0,13.4,1505.3,324.6,-0.7,1.8,2470.267,13.33,0.024,316.6
2019-12-06T04:34:03,42.805,6.029,-0.011,0.021,-0.015,100.0,107.0,98.0,13.3,1505.3,326.8,-0.7,1.8,2470.28,13.33,0.023,332.4
2019-12-06T04:37:03,42.805,6.029,-0.006,0.015,-0.007,100.0,106.0,99.0,13.4,1505.3,325.7,-0.7,1.8,2470.282,13.33,0.016,338.2
2019-12-06T04:40:03,42.805,6.029,-0.035,0.007,-0.018,100.0,107.0,100.0,13.4,1505.3,325.6,-0.7,1.8,2470.271,13.33,0.035,281.3
2019-12-06T04:43:03,42.805,6.029,-0.01,0.011,0.001,100.0,107.0,98.0,13.4,1505.4,326.0,-0.7,1.8,2470.291,13.34,0.014,317.7
2019-12-06T04:46:03,42.805,6.029,-0.04,0.03,-0.004,100.0,107.0,98.0,13.4,1505.3,325.7,-0.7,1.8,2470.241,13.33,0.05,306.9
2019-12-06T04:49:03,42.805,6.029,-0.01,0.033,0.0,101.0,108.0,98.0,13.3,1505.4,325.3,-0.7,1.8,2470.256,13.34,0.034,343.1
2019-12-06T04:52:03,42.805,6.029,0.009,0.024,-0.004,100.0,107.0,98.0,13.3,1505.4,326.9,-0.7,1.8,2470.269,13.34,0.025,20.6
2019-12-06T04:55:03,42.805,6.029,0.004,0.015,0.0,100.0,107.0,99.0,13.4,1505.4,326.0,-0.7,1.9,2470.285,13.34,0.015,14.9
2019-12-06T04:58:03,42.805,6.029,-0.038,0.042,-0.02,98.0,107.0,98.0,13.4,1505.4,324.9,-0.7,1.8,2470.281,13.34,0.056,317.9
2019-12-06T05:04:03,42.805,6.029,-0.015,0.011,-0.033,101.0,107.0,99.0,13.4,1505.3,323.7,-0.8,1.8,2470.302,13.32,0.018,306.3
2019-12-06T05:07:03,42.805,6.029,-0.026,0.024,-0.037,102.0,107.0,98.0,13.4,1505.3,326.5,-0.7,1.9,2470.267,13.32,0.035,312.7
2019-12-06T05:10:03,42.805,6.029,-0.004,0.03,0.02,100.0,107.0,99.0,13.4,1505.3,327.6,-0.7,1.8,2470.263,13.33,0.03,352.4
2019-12-06T05:13:03,42.805,6.029,-0.004,0.03,-0.001,99.0,107.0,98.0,13.3,1505.3,327.0,-0.7,1.8,2470.259,13.33,0.03,352.4
2019-12-06T05:16:03,42.805,6.029,0.008,0.031,-0.021,100.0,107.0,99.0,13.3,1505.3,326.8,-0.7,1.8,2470.28,13.33,0.032,14.5
2019-12-06T05:19:03,42.805,6.029,0.003,0.02,-0.022,100.0,107.0,98.0,13.3,1505.4,325.6,-0.7,1.8,2470.258,13.34,0.02,8.5
2019-12-06T05:22:03,42.805,6.029,-0.017,0.014,-0.023,99.0,107.0,98.0,13.4,1505.4,328.0,-0.7,1.8,2470.254,13.34,0.022,309.5
2019-12-06T05:25:03,42.805,6.029,-0.035,0.008,-0.012,100.0,107.0,98.0,13.4,1505.4,324.2,-0.7,1.8,2470.242,13.34,0.035,282.9
2019-12-06T05:28:03,42.805,6.029,0.003,0.019,0.003,99.0,108.0,98.0,13.3,1505.4,324.6,-0.7,1.9,2470.251,13.34,0.019,9.0
2019-12-06T05:31:03,42.805,6.029,-0.009,0.022,-0.01,100.0,106.0,98.0,13.4,1505.4,325.5,-0.7,1.8,2470.226,13.34,0.023,337.8
2019-12-06T05:34:03,42.805,6.029,-0.044,0.024,-0.036,98.0,108.0,98.0,13.4,1505.4,326.9,-0.7,1.8,2470.247,13.34,0.05,298.6
2019-12-06T05:37:03,42.805,6.029,-0.018,0.017,-0.026,100.0,108.0,98.0,13.3,1505.4,328.1,-0.7,1.9,2470.244,13.34,0.024,313.4
2019-12-06T05:40:03,42.805,6.029,-0.017,0.026,-0.021,99.0,108.0,98.0,13.4,1505.4,322.9,-0.7,1.8,2470.276,13.34,0.031,326.8
2019-12-06T05:43:03,42.805,6.029,-0.007,-0.001,-0.025,99.0,108.0,98.0,13.4,1505.4,326.4,-0.7,1.8,2470.283,13.34,0.007,261.9
2019-12-06T05:46:03,42.805,6.029,-0.008,0.022,-0.036,99.0,107.0,98.0,13.4,1505.4,323.5,-0.7,1.8,2470.261,13.34,0.023,340.0
2019-12-06T05:49:03,42.805,6.029,-0.022,0.025,0.012,100.0,109.0,98.0,13.4,1505.4,323.5,-0.7,1.8,2470.255,13.34,0.033,318.7
2019-12-06T05:52:03,42.805,6.029,-0.011,0.029,-0.035,100.0,109.0,98.0,13.4,1505.4,326.4,-0.7,1.9,2470.271,13.34,0.031,339.2
2019-12-06T05:55:03,42.805,6.029,0.009,0.044,-0.003,100.0,108.0,98.0,13.4,1505.4,327.2,-0.8,1.8,2470.284,13.34,0.044,11.6
2019-12-06T05:58:03,42.805,6.029,-0.01,0.02,-0.062,98.0,107.0,99.0,13.3,1505.4,325.7,-0.7,1.8,2470.237,13.34,0.022,333.4
2019-12-06T06:04:03,42.805,6.029,-0.02,0.037,-0.019,98.0,107.0,98.0,13.4,1505.3,325.9,-0.8,1.8,2470.29,13.32,0.042,331.6
2019-12-06T06:07:03,42.805,6.029,-0.013,0.017,-0.056,99.0,108.0,98.0,13.4,1505.3,324.8,-0.7,1.8,2470.261,13.33,0.021,322.6
2019-12-06T06:10:03,42.805,6.029,-0.004,0.015,0.002,100.0,106.0,99.0,13.4,1505.3,327.3,-0.7,1.9,2470.248,13.33,0.015,345.1
2019-12-06T06:13:03,42.805,6.029,-0.01,0.03,0.0,99.0,108.0,98.0,13.3,1505.3,325.9,-0.7,1.8,2470.282,13.33,0.031,341.6
2019-12-06T06:16:03,42.805,6.029,0.018,0.002,-0.025,99.0,107.0,98.0,13.4,1505.3,326.6,-0.7,1.8,2470.269,13.33,0.018,83.7
2019-12-06T06:19:03,42.805,6.029,-0.005,0.019,-0.035,100.0,107.0,98.0,13.4,1505.4,326.4,-0.7,1.8,2470.324,13.34,0.019,345.3
2019-12-06T06:22:03,42.805,6.029,-0.032,0.016,-0.027,97.0,109.0,99.0,13.3,1505.4,327.7,-0.7,1.9,2470.268,13.34,0.035,296.6
2019-12-06T06:25:03,42.805,6.029,0.006,0.008,-0.033,100.0,108.0,98.0,13.4,1505.4,326.4,-0.7,1.8,2470.279,13.34,0.01,36.9
2019-12-06T06:28:03,42.805,6.029,-0.021,0.03,-0.006,100.0,107.0,98.0,13.3,1505.4,326.1,-0.7,1.8,2470.282,13.34,0.036,325.0
2019-12-06T06:31:03,42.805,6.029,-0.007,0.014,-0.037,100.0,108.0,98.0,13.3,1505.4,328.1,-0.7,1.8,2470.219,13.34,0.015,333.4
2019-12-06T06:34:03,42.805,6.029,-0.018,0.024,-0.033,100.0,108.0,98.0,13.3,1505.4,324.1,-0.7,1.9,2470.273,13.34,0.03,323.1
2019-12-06T06:37:03,42.805,6.029,0.0,0.03,0.008,99.0,108.0,98.0,13.4,1505.4,326.4,-0.7,1.8,2470.278,13.34,0.03,0.0
2019-12-06T06:40:03,42.805,6.029,-0.015,0.012,-0.036,98.0,109.0,98.0,13.4,1505.4,326.0,-0.7,1.8,2470.312,13.34,0.019,308.7
2019-12-06T06:43:03,42.805,6.029,-0.004,0.016,-0.031,99.0,109.0,98.0,13.4,1505.4,326.1,-0.7,1.8,2470.232,13.34,0.016,346.0
2019-12-06T06:46:03,42.805,6.029,0.005,0.014,-0.029,99.0,108.0,98.0,13.4,1505.4,326.4,-0.7,1.8,2470.217,13.34,0.014,19.6
2019-12-06T06:49:03,42.805,6.029,0.006,0.009,-0.005,100.0,107.0,98.0,13.4,1505.4,328.1,-0.7,1.8,2470.234,13.34,0.01,33.7
2019-12-06T06:52:03,42.805,6.029,-0.007,0.003,-0.017,99.0,108.0,98.0,13.3,1505.4,325.5,-0.7,1.9,2470.227,13.34,0.007,293.2
2019-12-06T06:55:03,42.805,6.029,-0.01,0.014,-0.041,99.0,107.0,99.0,13.4,1505.4,326.0,-0.7,1.9,2470.244,13.34,0.017,324.5
2019-12-06T06:58:03,42.805,6.029,-0.004,0.028,0.001,100.0,107.0,100.0,13.3,1505.4,324.0,-0.7,1.8,2470.22,13.34,0.028,351.9
2019-12-06T07:04:03,42.805,6.029,0.023,0.029,0.032,101.0,107.0,99.0,13.4,1505.3,327.1,-0.7,1.8,2470.293,13.32,0.037,38.4
2019-12-06T07:07:03,42.805,6.029,-0.003,0.014,-0.014,101.0,108.0,99.0,13.3,1505.3,326.7,-0.7,1.8,2470.271,13.33,0.014,347.9
2019-12-06T07:10:03,42.805,6.029,-0.012,0.006,-0.033,100.0,108.0,97.0,13.4,1505.3,325.6,-0.7,1.8,2470.303,13.33,0.013,296.6
2019-12-06T07:13:03,42.805,6.029,0.003,0.027,-0.025,101.0,107.0,98.0,13.4,1505.3,323.4,-0.7,1.9,2470.276,13.33,0.027,6.3
2019-12-06T07:16:03,42.805,6.029,0.01,0.021,-0.039,99.0,108.0,98.0,13.4,1505.4,324.7,-0.7,1.8,2470.261,13.34,0.023,25.5
2019-12-06T07:19:03,42.805,6.029,0.0,0.015,-0.022,99.0,108.0,97.0,13.4,1505.4,325.7,-0.7,1.9,2470.245,13.34,0.015,0.0
2019-12-06T07:22:03,42.805,6.029,-0.014,0.019,-0.004,98.0,107.0,99.0,13.4,1505.4,327.8,-0.7,1.8,2470.253,13.34,0.023,323.6
2019-12-06T07:25:03,42.805,6.029,-0.008,0.023,-0.008,101.0,107.0,99.0,13.3,1505.4,324.8,-0.7,1.9,2470.268,13.34,0.024,340.8
2019-12-06T07:28:03,42.805,6.029,0.029,-0.008,0.009,100.0,107.0,98.0,13.4,1505.4,324.6,-0.7,1.8,2470.233,13.34,0.03,105.4
2019-12-06T07:31:03,42.805,6.029,-0.006,0.006,-0.04,100.0,107.0,98.0,13.4,1505.4,324.1,-0.7,1.9,2470.223,13.34,0.008,315.0
2019-12-06T07:34:03,42.805,6.029,-0.007,0.008,-0.048,100.0,107.0,99.0,13.4,1505.4,325.4,-0.7,1.8,2470.263,13.34,0.01,318.8
2019-12-06T07:37:03,42.805,6.029,0.003,0.024,-0.012,100.0,107.0,98.0,13.3,1505.4,323.5,-0.7,1.8,2470.24,13.34,0.024,7.1
2019-12-06T07:40:03,42.805,6.029,-0.005,0.035,0.013,101.0,108.0,100.0,13.4,1505.4,323.1,-0.7,1.8,2470.25,13.34,0.035,351.9
2019-12-06T07:43:03,42.805,6.029,-0.018,0.021,-0.009,100.0,107.0,98.0,13.3,1505.4,324.4,-0.7,1.9,2470.256,13.34,0.027,319.4
2019-12-06T07:46:03,42.805,6.029,0.0,0.012,-0.029,99.0,108.0,97.0,13.4,1505.4,323.6,-0.8,1.8,2470.255,13.35,0.012,0.0
2019-12-06T07:49:03,42.805,6.029,0.012,0.017,-0.026,100.0,108.0,97.0,13.4,1505.4,326.3,-0.7,1.8,2470.281,13.34,0.02,35.2
2019-12-06T07:52:03,42.805,6.029,0.023,0.026,-0.016,99.0,109.0,99.0,13.4,1505.4,326.0,-0.7,1.8,2470.24,13.34,0.034,41.5
2019-12-06T07:55:03,42.805,6.029,0.001,0.031,0.007,102.0,108.0,96.0,13.4,1505.4,327.1,-0.7,1.8,2470.237,13.34,0.031,1.8
2019-12-06T07:58:03,42.805,6.029,0.0,0.015,-0.019,100.0,109.0,99.0,13.4,1505.4,326.4,-0.7,1.9,2470.255,13.34,0.015,0.0
2019-12-06T08:04:03,42.805,6.029,0.044,-0.002,-0.012,100.0,106.0,98.0,13.3,1505.3,325.8,-0.7,1.8,2470.245,13.32,0.044,92.6
2019-12-06T08:07:03,42.805,6.029,-0.006,0.002,0.0,100.0,107.0,99.0,13.4,1505.3,326.0,-0.7,1.9,2470.216,13.33,0.006,288.4
2019-12-06T08:10:03,42.805,6.029,-0.012,0.047,0.007,99.0,108.0,97.0,13.3,1505.3,326.7,-0.7,1.8,2470.274,13.33,0.048,345.7
2019-12-06T08:13:03,42.805,6.029,0.03,0.015,0.013,100.0,108.0,99.0,13.3,1505.3,324.6,-0.7,1.8,2470.229,13.33,0.033,63.4
2019-12-06T08:16:03,42.805,6.029,0.0,0.025,-0.01,102.0,109.0,97.0,13.4,1505.4,325.1,-0.7,1.8,2470.243,13.34,0.025,0.0
2019-12-06T08:19:03,42.805,6.029,-0.006,0.034,-0.026,101.0,109.0,97.0,13.4,1505.4,325.3,-0.7,1.8,2470.292,13.34,0.034,350.0
2019-12-06T08:22:03,42.805,6.029,-0.012,0.024,-0.03,98.0,109.0,98.0,13.3,1505.4,327.5,-0.7,1.8,2470.268,13.34,0.026,333.4
2019-12-06T08:25:03,42.805,6.029,-0.011,0.015,-0.034,101.0,109.0,98.0,13.3,1505.4,325.9,-0.7,1.8,2470.22,13.34,0.018,323.7
2019-12-06T08:28:03,42.805,6.029,0.006,0.009,-0.025,100.0,109.0,100.0,13.4,1505.4,326.4,-0.7,1.8,2470.244,13.34,0.01,33.7
2019-12-06T08:31:03,42.805,6.029,0.011,-0.006,-0.002,99.0,108.0,98.0,13.4,1505.4,327.3,-0.7,1.9,2470.237,13.35,0.012,118.6
2019-12-06T08:34:03,42.805,6.029,0.003,0.012,-0.017,101.0,108.0,99.0,13.4,1505.4,327.1,-0.7,1.9,2470.23,13.35,0.012,14.0
2019-12-06T08:37:02,42.805,6.029,-0.016,0.017,-0.023,99.0,108.0,99.0,13.4,1505.4,326.4,-0.8,1.8,2470.238,13.35,0.023,316.7
2019-12-06T08:40:03,42.805,6.029,0.017,0.011,-0.02,99.0,108.0,98.0,13.3,1505.4,327.1,-0.7,1.8,2470.244,13.35,0.02,57.1
2019-12-06T08:43:03,42.805,6.029,-0.005,0.029,-0.026,100.0,108.0,98.0,13.4,1505.4,325.9,-0.7,1.9,2470.238,13.35,0.029,350.2
2019-12-06T08:46:03,42.805,6.029,-0.008,0.012,-0.014,100.0,107.0,98.0,13.4,1505.4,327.3,-0.7,1.8,2470.236,13.35,0.014,326.3
2019-12-06T08:49:03,42.805,6.029,-0.004,0.013,-0.029,100.0,107.0,100.0,13.4,1505.4,325.8,-0.7,1.8,2470.242,13.35,0.013,342.9
2019-12-06T08:52:03,42.805,6.029,0.0,0.0,-0.029,100.0,112.0,98.0,13.3,1505.4,326.8,-0.7,1.9,2470.229,13.35,0.0,0.0
2019-12-06T08:55:03,42.805,6.029,0.001,0.016,-0.016,100.0,108.0,98.0,13.3,1505.4,324.6,-0.7,1.8,2470.222,13.35,0.016,3.6
2019-12-06T08:58:03,42.805,6.029,0.005,-0.013,-0.009,99.0,108.0,98.0,13.4,1505.4,328.5,-0.7,1.9,2470.247,13.35,0.013,159.0
2019-12-06T09:04:03,42.805,6.029,-0.005,0.007,-0.04,99.0,108.0,98.0,13.3,1505.3,327.3,-0.8,1.8,2470.275,13.33,0.008,324.5
2019-12-06T09:07:03,42.805,6.029,0.0,0.013,-0.036,99.0,108.0,98.0,13.4,1505.4,327.6,-0.7,1.8,2470.241,13.34,0.013,0.0
2019-12-06T09:10:03,42.805,6.029,-0.009,0.027,-0.029,100.0,109.0,97.0,13.3,1505.4,327.8,-0.7,1.8,2470.249,13.34,0.028,341.6
2019-12-06T09:13:03,42.805,6.029,-0.022,0.011,0.002,98.0,108.0,99.0,13.4,1505.4,324.0,-0.7,1.8,2470.237,13.34,0.024,296.6
2019-12-06T09:16:03,42.805,6.029,-0.002,0.001,-0.012,100.0,108.0,97.0,13.3,1505.4,323.9,-0.7,1.8,2470.286,13.34,0.002,296.6
2019-12-06T09:19:03,42.805,6.029,-0.004,0.022,-0.005,100.0,108.0,98.0,13.4,1505.4,324.0,-0.7,1.9,2470.215,13.34,0.022,349.7
2019-12-06T09:22:03,42.805,6.029,-0.017,0.006,-0.043,98.0,108.0,98.0,13.4,1505.4,325.9,-0.7,1.8,2470.286,13.34,0.018,289.4
2019-12-06T09:25:03,42.805,6.029,-0.012,0.017,-0.033,100.0,108.0,98.0,13.4,1505.4,325.9,-0.7,1.8,2470.233,13.34,0.02,324.8
2019-12-06T09:28:03,42.805,6.029,-0.003,0.017,0.004,99.0,109.0,97.0,13.4,1505.4,328.0,-0.7,1.9,2470.244,13.34,0.017,350.0
2019-12-06T09:31:03,42.805,6.029,0.002,0.023,-0.018,98.0,109.0,98.0,13.4,1505.4,323.4,-0.7,1.8,2470.288,13.34,0.023,5.0
2019-12-06T09:34:03,42.805,6.029,0.005,0.034,0.003,99.0,108.0,97.0,13.4,1505.4,323.8,-0.7,1.8,2470.242,13.34,0.034,8.4
2019-12-06T09:37:03,42.805,6.029,-0.018,0.01,-0.046,101.0,107.0,98.0,13.4,1505.4,323.5,-0.7,1.8,2470.265,13.34,0.02,299.1
2019-12-06T09:40:03,42.805,6.029,0.002,0.016,-0.023,100.0,109.0,97.0,13.4,1505.4,324.8,-0.7,1.8,2470.246,13.34,0.016,7.1
2019-12-06T09:43:03,42.805,6.029,-0.015,0.004,-0.05,100.0,108.0,97.0,13.4,1505.4,328.6,-0.7,1.9,2470.229,13.35,0.015,284.9
2019-12-06T09:46:03,42.805,6.029,-0.022,0.0,-0.032,99.0,107.0,99.0,13.3,1505.4,327.1,-0.8,1.8,2470.227,13.34,0.022,270.0
2019-12-06T09:49:03,42.805,6.029,-0.011,0.023,-0.042,99.0,107.0,99.0,13.4,1505.4,325.7,-0.7,1.8,2470.244,13.34,0.025,334.4
2019-12-06T09:52:03,42.805,6.029,-0.013,0.018,-0.016,99.0,108.0,98.0,13.4,1505.4,326.8,-0.7,1.8,2470.257,13.34,0.022,324.2
2019-12-06T09:55:03,42.805,6.029,-0.021,0.018,-0.033,100.0,108.0,98.0,13.4,1505.4,327.9,-0.7,1.9,2470.275,13.34,0.027,310.6
2019-12-06T09:58:03,42.805,6.029,0.013,0.0,0.018,99.0,108.0,97.0,13.4,1505.4,323.2,-0.7,1.9,2470.256,13.34,0.013,90.0
2019-12-06T10:04:03,42.805,6.029,-0.007,0.001,-0.027,100.0,107.0,98.0,13.3,1505.3,325.1,-0.7,1.8,2470.304,13.32,0.007,278.1
2019-12-06T10:07:03,42.805,6.029,-0.029,-0.004,-0.062,99.0,108.0,98.0,13.3,1505.3,323.0,-0.7,1.8,2470.276,13.33,0.029,262.2